Lid_Strength_Index
2 2 2 2 2 3 7 10 14 8 7 13 14 16 11 9 10 10 10 11 12 14 13 14 14 13 12 9 9 12 12 14 18 16 12 12 14 16 16 19 20 20 20 19
3 2 2 2 3 3 9 12 12 8 10 17 16 12 11 10 11 11 11 11 11 11 13 15 13 13 10 9 10 12 11 15 19 17 15 14 16 15 16 17 18 19 20 19
3 2 2 2 3 3 8 11 14 12 12 14 14 14 13 12 10 11 11 11 11 12 13 12 14 14 10 10 10 7 9 14 17 19 17 16 16 15 15 16 20 20 19 19
3 3 2 2 3 3 8 12 15 14 16 15 15 14 12 14 13 11 12 13 13 13 15 14 15 13 12 10 9 11 11 14 17 16 15 14 15 15 15 16 17 18 19 18
3 3 2 2 3 3 10 11 12 14 15 14 15 14 14 13 13 12 14 14 13 13 14 14 14 13 13 13 12 13 13 15 16 18 16 16 16 15 15 15 16 17 17 17
3 3 2 2 3 5 11 11 11 12 14 15 16 16 15 13 12 13 12 13 14 14 13 13 14 13 13 14 13 14 15 16 16 18 18 17 18 18 16 15 15 15 17 15
2 3 2 2 3 6 10 10 10 12 14 16 15 14 14 13 13 14 13 12 14 13 12 12 13 14 13 13 14 14 16 16 17 21 20 22 17 17 16 15 15 14 15 14
2 2 3 3 3 5 10 10 10 13 15 15 15 14 14 15 15 14 13 13 12 12 14 16 17 17 17 15 14 14 15 17 20 21 22 19 19 18 17 16 17 13 13 14
2 3 3 3 3 4 9 10 10 12 14 14 14 14 15 16 17 17 15 12 11 13 15 17 20 21 20 19 18 15 14 16 17 19 21 22 19 16 16 17 19 17 14 15
2 2 3 3 3 4 9 10 10 11 13 13 14 14 14 15 16 16 16 16 14 14 16 18 19 20 18 19 20 19 18 18 20 20 21 19 17 15 15 20 18 16 15 15
3 3 3 3 4 4 8 10 10 11 13 13 12 12 14 15 15 16 15 15 16 17 17 18 18 20 19 20 19 19 18 20 20 20 22 23 15 16 17 16 16 15 15 15
3 3 3 2 3 4 7 10 9 10 12 12 11 12 13 13 13 14 15 16 15 15 18 19 19 18 20 20 21 20 20 18 19 18 18 16 15 15 15 15 14 15 15 15
4 3 3 3 3 4 6 9 10 11 13 12 12 13 12 11 12 12 14 15 14 15 15 17 18 19 19 20 20 20 18 17 17 17 16 16 15 15 14 14 15 15 15 15
4 3 3 3 2 4 6 9 9 11 12 15 14 11 13 12 12 12 12 13 13 14 15 16 18 18 17 19 19 19 18 18 18 18 17 17 16 16 16 16 16 17 17 17
3 3 3 3 4 5 8 10 10 10 12 14 14 13 13 12 13 13 13 13 14 15 16 17 17 17 17 19 19 20 18 18 18 17 16 16 16 16 15 16 16 16 16 16
3 4 3 4 4 6 9 12 11 10 11 14 16 14 15 14 13 13 14 14 14 15 16 17 17 16 17 19 19 16 17 17 16 16 16 16 16 17 16 16 16 16 16 16
3 3 3 4 5 7 10 12 10 9 11 14 17 17 14 14 15 15 15 15 16 15 16 17 17 17 16 18 19 16 16 16 16 17 16 17 17 17 17 16 16 15 17 17
4 3 3 3 5 7 9 10 8 10 12 14 19 18 16 13 16 16 16 16 16 16 17 17 17 17 17 18 15 17 16 16 17 17 17 17 17 17 17 17 17 17 17 17
5 4 3 6 7 9 9 7 9 11 13 17 18 19 18 14 16 16 16 17 18 17 18 18 17 18 19 15 15 16 16 16 17 18 18 18 18 18 17 18 18 18 18 18
4 5 7 10 8 6 7 10 12 13 13 15 18 16 18 15 17 17 18 18 18 22 18 17 17 18 15 14 15 15 15 16 17 18 18 18 19 18 18 18 17 17 18 18
6 9 11 9 7 9 10 13 14 14 15 15 15 17 17 15 17 17 17 20 19 23 21 19 19 19 16 15 16 15 15 16 16 16 16 16 16 17 18 18 18 17 17 17
8 9 8 9 11 12 13 14 14 15 16 16 16 16 15 16 15 16 17 19 18 22 18 18 20 17 16 16 17 16 16 15 16 16 16 16 16 16 17 17 17 16 16 16
7 10 13 13 13 15 15 17 16 16 17 16 15 16 16 16 16 17 18 20 19 18 18 20 19 17 17 16 17 17 17 16 16 16 16 16 16 16 16 16 16 16 16 16
11 13 15 15 16 16 16 17 17 16 17 14 16 16 16 16 17 17 21 18 18 20 22 21 19 17 16 16 16 16 16 16 17 16 16 15 16 16 15 15 15 16 16 15
11 12 15 14 13 16 16 19 18 15 14 16 15 15 15 16 16 17 17 19 20 19 21 18 17 16 15 16 16 16 16 16 16 17 17 18 17 17 16 16 16 16 15 15
10 11 13 13 14 15 15 16 15 14 13 14 13 15 17 17 17 17 18 19 21 18 17 16 16 16 16 16 15 15 16 16 16 16 16 15 16 16 16 16 16 16 16 16
11 12 11 14 15 13 14 15 15 13 13 14 14 17 17 16 17 18 17 20 17 15 16 17 15 15 15 15 14 15 15 16 16 16 15 15 15 18 20 19 16 16 16 16